Terug naar catalogus

ELISA W11

ActiefMilitairSSO
NORAD 38007·PAYLOAD·🇫🇷 France

Gelanceerd Dec 17, 2011 vanaf Guiana Space Centre

Loading…

Volgende Passages (komende 24 uur)

TLE

VersSource: Space-Track

Epoch: Sep 14, 2026, 22:44 UTC

1 38007U 11076A   26257.94757222  .00000669  00000-0  10022-3 0  9992
2 38007  97.7730 251.0461 0001488  81.4739 278.6641 14.77712714790017

Volg ELISA W11 in realtime met AllMySat

Download on the App Store